This demonstration page uses our WeatherBlox Daily Observations layout. Learn more.

Left ArrowRight Arrow

Hourly Observations for May 14, 2015

Temp ( °F °C ) Dew Point ( °F °C ) Humidity (%) Winds ( mph kmh ) Pressure ( in mb ) Visibility ( mi km ) Precip ( " mm )
12:16 am 00:16 Clear 50 10 37 3 62 62 ENE 8 13 30.39 1029 10 16.0934 N/A
12:36 am 00:36 Clear 50 10 37 3 62 62 E 9 15 30.39 1029 10 16.0934 N/A
12:56 am 00:56 Clear 50 10 37 3 62 62 E 9 15 30.39 1029 10 16.0934 N/A
1:16 am 01:16 Clear 50 10 37 3 62 62 E 10 17 30.39 1029 10 16.0934 N/A
1:36 am 01:36 Clear 50 10 37 3 62 62 E 9 15 30.39 1029 10 16.0934 N/A
1:56 am 01:56 Clear 50 10 36 2 58 58 E 12 19 30.39 1029 10 16.0934 N/A
2:16 am 02:16 Clear 50 10 36 2 58 58 E 12 19 30.36 1028 10 16.0934 N/A
2:36 am 02:36 Clear 50 10 36 2 58 58 E 10 17 30.36 1028 10 16.0934 N/A
2:56 am 02:56 Clear 50 10 36 2 58 58 E 13 20 30.36 1028 10 16.0934 N/A
3:16 am 03:16 Clear 50 10 36 2 58 58 E 13 20 30.36 1028 10 16.0934 N/A
3:36 am 03:36 Clear 50 10 36 2 58 58 E 12 19 30.36 1028 10 16.0934 N/A
3:56 am 03:56 Clear 50 10 36 2 58 58 E 13 20 30.33 1027 10 16.0934 N/A
4:16 am 04:16 Clear 48 9 36 2 62 62 E 14 22 30.33 1027 10 16.0934 N/A
4:36 am 04:36 Clear 48 9 36 2 62 62 E 12 19 30.33 1027 10 16.0934 N/A
4:56 am 04:56 Clear 48 9 36 2 62 62 ESE 10 17 30.36 1028 10 16.0934 N/A
5:16 am 05:16 Clear 48 9 36 2 62 62 E 12 19 30.33 1027 10 16.0934 N/A
5:36 am 05:36 Clear 48 9 36 2 62 62 ESE 9 15 30.36 1028 10 16.0934 N/A
5:56 am 05:56 Clear 46 8 36 2 66 66 ESE 8 13 30.33 1027 10 16.0934 N/A
6:16 am 06:16 Clear 46 8 36 2 66 66 ESE 7 11 30.36 1028 10 16.0934 N/A
6:36 am 06:36 Sunny 46 8 36 2 66 66 ESE 7 11 30.36 1028 10 16.0934 N/A
6:56 am 06:56 Sunny 46 8 36 2 66 66 SE 7 11 30.39 1029 10 16.0934 N/A
7:16 am 07:16 Sunny 48 9 36 2 62 62 E 9 15 30.39 1029 10 16.0934 N/A
7:36 am 07:36 Sunny 48 9 36 2 62 62 ESE 13 20 30.39 1029 10 16.0934 N/A
7:56 am 07:56 Sunny 48 9 36 2 62 62 ESE 14 22 30.39 1029 10 16.0934 N/A
8:16 am 08:16 Sunny 50 10 34 1 54 54 ESE 10 17 30.39 1029 10 16.0934 N/A
8:36 am 08:36 Sunny 50 10 34 1 54 54 ESE 12 19 30.39 1029 10 16.0934 N/A
8:56 am 08:56 Sunny 52 11 34 1 50 50 SE 10 17 30.39 1029 10 16.0934 N/A
9:16 am 09:16 Sunny 54 12 34 1 47 47 SE 10 17 30.39 1029 10 16.0934 N/A
9:36 am 09:36 Sunny 54 12 34 1 47 47 ESE 9 15 30.39 1029 10 16.0934 N/A
9:56 am 09:56 Sunny 55 13 34 1 44 44 ESE 8 13 30.39 1029 10 16.0934 N/A
10:16 am 10:16 Sunny 57 14 34 1 41 41 ESE 13 20 30.39 1029 10 16.0934 N/A
10:36 am 10:36 Sunny 57 14 32 0 39 39 SE 13 20 30.36 1028 10 16.0934 N/A
10:56 am 10:56 Sunny 59 15 32 0 36 36 SE 13 20 30.33 1027 10 16.0934 N/A
11:16 am 11:16 Sunny 59 15 32 0 36 36 SE 10 17 30.33 1027 10 16.0934 N/A
11:36 am 11:36 Sunny 61 16 32 0 34 34 SSE 8 13 30.33 1027 10 16.0934 N/A
11:56 am 11:56 Sunny 61 16 32 0 34 34 SE 7 11 30.33 1027 10 16.0934 N/A
12:16 pm 12:16 Sunny 61 16 32 0 34 34 ESE 10 17 30.33 1027 10 16.0934 N/A
12:36 pm 12:36 Sunny 63 17 32 0 32 32 SE 9 15 30.3 1026 10 16.0934 N/A
12:57 pm 12:57 Sunny 63 17 30 -1 30 30 SE 9 15 30.3 1026 10 16.0934 N/A
1:16 pm 13:16 Sunny 66 19 30 -1 26 26 SE 12 19 30.3 1026 10 16.0934 N/A
1:36 pm 13:36 Sunny 66 19 28 -2 24 24 ESE 9 15 30.27 1025 10 16.0934 N/A
1:56 pm 13:56 Sunny 66 19 28 -2 24 24 ESE 9 15 30.27 1025 10 16.0934 N/A
2:16 pm 14:16 Sunny 66 19 27 -3 22 22 SE 7 11 30.24 1024 10 16.0934 N/A
2:37 pm 14:37 Sunny 68 20 27 -3 21 21 SE 8 13 30.24 1024 10 16.0934 N/A
2:56 pm 14:56 Sunny 68 20 27 -3 21 21 ESE 7 11 30.24 1024 10 16.0934 N/A
3:16 pm 15:16 Sunny 70 21 27 -3 20 20 ESE 5 7 30.24 1024 10 16.0934 N/A
3:36 pm 15:36 Sunny 70 21 23 -5 17 17 SE 9 15 30.21 1023 10 16.0934 N/A
3:56 pm 15:56 Sunny 70 21 27 -3 20 20 ESE 7 11 30.21 1023 10 16.0934 N/A
4:16 pm 16:16 Sunny 70 21 25 -4 18 18 SE 9 15 30.21 1023 10 16.0934 N/A
4:36 pm 16:36 Sunny 70 21 23 -5 17 17 SSE 10 17 30.18 1022 10 16.0934 N/A
4:56 pm 16:56 Sunny 70 21 23 -5 17 17 SE 8 13 30.18 1022 10 16.0934 N/A
5:16 pm 17:16 Sunny 70 21 25 -4 18 18 SE 8 13 30.18 1022 10 16.0934 N/A
5:36 pm 17:36 Sunny 70 21 23 -5 17 17 SSE 8 13 30.18 1022 10 16.0934 N/A
5:56 pm 17:56 Sunny 70 21 25 -4 18 18 SE 7 11 30.18 1022 10 16.0934 N/A
6:16 pm 18:16 Sunny 70 21 23 -5 17 17 SSE 10 17 30.18 1022 10 16.0934 N/A
6:36 pm 18:36 Sunny 70 21 23 -5 17 17 SSE 12 19 30.18 1022 10 16.0934 N/A
6:56 pm 18:56 Sunny 70 21 25 -4 18 18 SSE 9 15 30.18 1022 10 16.0934 N/A
7:16 pm 19:16 Sunny 70 21 27 -3 20 20 S 6 9 30.18 1022 10 16.0934 N/A
7:36 pm 19:36 Sunny 70 21 27 -3 20 20 SSE 6 9 30.18 1022 10 16.0934 N/A
7:56 pm 19:56 Sunny 68 20 27 -3 21 21 SSE 6 9 30.18 1022 10 16.0934 N/A
8:16 pm 20:16 Sunny 68 20 30 -1 24 24 SE 7 11 30.15 1021 10 16.0934 N/A
8:37 pm 20:37 Sunny 66 19 32 0 28 28 SE 5 7 30.15 1021 10 16.0934 N/A
8:56 pm 20:56 Clear 66 19 32 0 28 28 SE 8 13 30.15 1021 10 16.0934 N/A
9:16 pm 21:16 Clear 66 19 32 0 28 28 SE 6 9 30.15 1021 10 16.0934 N/A
9:36 pm 21:36 Partly Cloudy 64 18 34 1 32 32 SSE 6 9 30.15 1021 10 16.0934 N/A
9:56 pm 21:56 Partly Cloudy 64 18 36 2 34 34 SSE 7 11 30.15 1021 10 16.0934 N/A
10:16 pm 22:16 Clear 64 18 36 2 34 34 SSE 6 9 30.15 1021 10 16.0934 N/A
10:36 pm 22:36 Clear 64 18 36 2 34 34 SSE 8 13 30.15 1021 10 16.0934 N/A
10:57 pm 22:57 Clear 63 17 36 2 37 37 SE 6 9 30.15 1021 10 16.0934 N/A
11:16 pm 23:16 Clear 63 17 37 3 39 39 SSE 7 11 30.15 1021 10 16.0934 N/A
11:36 pm 23:36 Clear 61 16 37 3 42 42 SSE 6 9 30.15 1021 10 16.0934 N/A
11:56 pm 23:56 Clear 63 17 37 3 39 39 SSE 6 9 30.15 1021 10 16.0934 N/A

Powered by AerisWeather